Location: Newark
(47.5833°N, 8.1500°E)
Time: 11:57:11
(UTC+00:00)

Vanguard 2 Rocket - Pass Details

Date: 01 November 2020
Orbit: 553 x 3326 km, 32.9° (Epoch: 04 December)

Event Time Altitude Azimuth Distance (km) Brightness Sun altitude
Rises 18:57:26 0° 238° (WSW) 2,719 10.0 -28.7°
Enters shadow 19:00:42 10° 207° (SSW) 1,947 8.8 -29.2°
Reaches altitude 10° 19:00:52 10° 204° (SSW) 1,929 - -29.3°
Maximum altitude 19:02:29 12° 182° (S) 1,896 - -29.5°
Drops below altitude 10° 19:04:14 10° 159° (SSE) 2,145 - -29.8°
Sets 19:08:42 0° 129° (SE) 3,496 - -30.6°
